Theta_e
329 324 326 320 306 306 302 304 312 311 313 319 322 321 320 324 321 317 335 341 351 347 353 357 359 358 360 362 363 363 362 362 362 362 361 359 358 356 354 351 349 347 343 340 337 335 335 336 336
324 322 323 313 303 300 302 308 308 313 318 322 322 322 321 323 331 330 333 340 353 347 351 351 359 358 359 360 361 361 361 362 361 360 359 357 356 354 351 349 347 345 341 337 336 335 335 336 337
330 330 313 306 303 300 302 310 312 317 323 322 321 325 325 326 332 334 340 348 353 349 348 352 360 358 358 358 359 359 359 360 360 360 358 357 355 353 351 349 347 343 340 338 337 337 338 338 338
326 323 313 303 301 305 308 311 313 317 324 325 324 319 326 334 334 338 341 350 351 350 347 357 359 358 358 357 357 357 358 358 358 358 357 356 354 353 350 349 347 345 341 340 340 341 341 340 340
326 316 303 301 302 307 310 313 315 317 320 322 323 320 323 333 339 339 339 345 346 348 348 355 358 358 358 358 357 355 355 356 356 356 356 354 353 352 350 348 346 346 345 343 344 344 344 343 342
315 314 302 299 303 308 311 314 315 318 321 322 322 322 324 334 337 339 340 342 344 346 350 355 357 358 358 357 356 355 354 354 354 354 354 353 352 350 348 347 347 346 346 347 346 346 346 345 345
314 310 304 303 303 305 309 314 312 314 318 320 326 320 326 330 337 337 339 340 341 346 351 354 353 355 357 357 356 355 354 353 353 353 352 352 351 349 348 347 346 346 347 347 347 347 348 348 348
315 312 306 306 305 305 312 314 315 314 314 323 325 319 323 332 338 336 335 336 338 342 349 354 353 350 350 351 356 354 354 353 352 352 351 350 349 349 348 346 347 347 347 348 348 348 348 349 348
316 308 305 306 306 308 313 311 316 317 315 320 324 326 330 335 334 332 332 333 336 339 342 354 355 351 346 345 350 354 354 353 351 350 350 347 343 342 342 343 344 347 348 348 349 349 349 349 349
310 307 308 312 312 311 313 313 314 313 313 315 321 327 331 333 333 331 330 330 333 337 341 348 355 349 346 342 345 350 349 349 348 346 345 344 340 339 338 341 344 346 348 349 349 349 349 348 343
308 306 312 314 315 315 313 313 316 312 309 314 317 324 327 331 333 330 330 332 333 337 337 345 355 353 349 345 347 349 345 344 345 343 342 342 340 338 338 336 338 343 347 343 346 346 345 342 341
303 308 311 313 316 315 313 316 313 314 313 317 320 324 327 326 330 330 331 332 339 333 332 345 355 358 357 351 350 350 347 345 342 342 342 340 339 338 337 336 338 338 340 338 339 340 341 341 342
302 305 310 312 313 314 315 314 314 314 318 319 319 321 326 325 328 331 334 338 344 345 345 345 357 359 361 363 358 351 349 348 345 344 343 341 341 337 337 340 339 338 339 338 337 340 341 342 343
305 305 306 308 312 313 311 312 314 316 319 318 319 319 322 325 326 330 333 335 339 344 355 347 349 362 361 359 360 362 355 352 351 347 346 344 341 341 340 338 340 342 340 340 338 340 340 343 344
305 301 304 305 307 307 310 306 309 317 318 317 318 319 320 323 327 325 330 333 340 341 348 348 350 365 361 358 359 357 359 352 353 350 352 347 346 343 340 341 339 338 343 342 339 339 344 345 343
298 300 296 302 304 306 306 299 308 315 316 316 317 319 320 322 322 327 332 335 341 339 339 343 335 346 360 359 359 358 354 354 352 351 353 355 348 345 346 342 342 343 340 341 342 339 339 339 339
295 290 294 298 305 304 303 301 308 312 313 314 316 319 320 322 325 328 331 333 339 342 345 349 351 349 360 362 359 358 356 355 351 351 351 355 353 348 345 345 345 345 342 341 338 339 340 337 340
291 292 294 294 299 302 301 301 307 310 311 311 314 315 318 321 322 328 332 333 337 344 347 350 351 354 356 357 356 350 349 347 349 348 348 355 353 352 348 347 345 350 341 339 341 337 338 338 338
296 294 293 296 300 299 300 302 305 307 309 310 312 315 316 318 323 326 330 330 339 343 345 349 349 349 350 348 344 342 339 340 344 349 354 357 355 352 351 346 349 344 343 339 341 339 337 337 339
295 293 292 296 299 298 298 298 304 307 308 310 312 313 315 318 321 324 325 328 339 340 343 346 349 351 349 344 343 343 343 340 341 348 354 356 356 352 350 349 345 346 343 341 342 338 335 338 339
294 292 293 292 296 297 296 295 299 305 308 310 311 314 315 316 317 322 325 332 337 337 341 342 343 344 345 344 345 348 348 349 349 352 352 353 354 353 351 349 347 347 343 340 340 340 336 332 336
290 296 295 293 291 287 296 288 298 302 304 307 310 311 313 316 318 319 322 325 332 335 337 344 345 342 343 348 344 344 338 337 344 352 351 351 352 351 350 349 347 349 343 342 341 340 338 336 335
293 298 295 294 291 290 291 288 293 301 301 305 308 312 313 313 317 318 320 322 326 327 328 332 335 340 343 344 344 341 346 345 351 350 354 350 352 350 347 348 346 348 342 342 339 340 338 338 338
298 295 294 293 290 284 289 289 290 295 300 304 309 311 313 314 314 316 319 322 322 326 329 333 338 339 345 345 349 347 345 343 346 351 346 346 346 345 344 346 344 345 342 343 342 340 341 341 338
296 291 283 281 282 282 291 289 292 298 302 304 306 309 312 315 317 317 316 317 321 324 326 333 340 343 344 344 344 347 343 353 353 351 345 343 342 342 341 342 344 341 344 346 346 343 340 339 335
291 290 283 276 279 282 290 285 291 300 304 306 308 310 312 314 316 318 321 324 321 323 329 332 333 337 340 343 347 349 348 352 354 348 344 342 340 341 343 344 343 344 345 346 344 341 339 338 336
292 288 294 286 288 283 287 290 296 300 300 303 306 309 311 313 315 318 319 324 322 324 332 334 336 337 345 348 348 351 351 354 349 348 344 343 343 342 342 346 345 346 344 343 341 339 338 338 336
294 296 287 288 279 277 283 285 287 295 297 301 304 308 311 314 315 318 323 326 330 334 342 347 349 347 347 348 350 350 351 353 349 347 344 346 347 346 345 345 344 343 342 340 341 339 338 337 336
292 290 289 289 287 280 279 284 295 299 300 301 304 309 311 315 321 329 325 328 337 342 345 347 346 346 345 346 347 350 350 349 350 348 346 347 347 345 344 343 341 340 340 340 338 338 335 334 334
294 292 291 285 283 286 285 285 299 299 298 297 306 309 314 321 326 330 331 333 335 340 342 344 345 344 344 344 343 343 343 343 343 343 342 344 344 343 341 341 338 337 337 338 337 335 334 332 333
Wind_Speed
10 11 10 9 7 8 16 20 21 23 16 10 10 4 5 14 16 10 13 18 25 20 19 19 19 17 15 14 13 12 11 11 12 11 12 11 11 10 10 9 8 7 7 7 6 5 5 5 5
8 12 8 7 8 13 14 19 24 22 10 8 4 1 7 8 22 14 13 18 22 18 17 17 19 18 16 15 14 13 12 12 12 12 12 11 11 11 10 9 8 7 7 6 6 6 4 4 4
10 15 5 6 11 17 17 20 17 13 6 5 7 8 7 6 15 13 13 20 22 16 16 16 20 18 17 15 14 13 13 12 11 12 11 11 10 11 11 10 9 9 8 7 6 5 5 4 3
8 7 7 10 17 21 27 24 29 12 14 8 10 8 4 11 15 12 19 21 18 16 16 20 19 17 16 16 15 14 14 13 12 12 12 11 11 10 11 10 9 9 9 8 8 7 5 5 4
9 6 11 15 20 21 22 22 23 11 6 12 15 13 11 6 17 19 17 18 17 17 15 18 21 18 18 17 15 15 14 14 13 13 12 11 11 11 11 11 10 9 9 9 9 8 7 6 5
9 10 13 13 20 22 21 23 19 7 11 10 14 13 12 12 23 17 17 17 17 17 16 15 20 18 17 17 16 16 14 14 13 12 13 12 12 12 12 12 11 10 10 10 10 9 8 7 6
15 13 18 21 20 19 21 20 20 9 13 19 15 18 15 19 20 19 16 17 16 17 16 14 15 16 16 15 15 15 15 14 13 12 12 12 13 13 13 12 12 11 11 11 9 9 9 9 8
13 13 23 20 18 23 21 16 21 15 15 18 18 2 11 10 14 19 18 18 19 18 18 15 13 13 13 12 13 14 14 14 14 14 14 13 13 13 13 12 12 13 13 12 11 11 12 11 9
21 16 18 24 22 21 18 19 15 16 15 20 14 6 10 11 14 17 18 18 17 18 17 18 16 14 13 13 13 13 15 15 15 15 16 13 9 10 12 12 14 15 14 13 13 14 11 10 11
20 18 28 23 19 20 19 19 20 17 19 18 10 8 6 10 12 17 17 14 14 17 19 18 17 16 14 11 13 14 12 10 10 11 11 9 9 8 12 13 16 18 16 15 15 13 11 12 8
22 27 25 26 24 21 20 23 17 15 19 21 17 14 8 18 19 20 13 13 12 15 7 17 18 17 16 12 9 8 8 8 9 13 10 10 8 7 8 7 9 8 15 8 10 9 8 11 8
27 30 28 29 28 26 25 23 25 19 22 24 18 16 17 12 12 15 14 10 1 13 4 12 15 13 14 10 9 10 9 10 9 11 13 9 8 8 8 8 9 9 8 10 8 7 9 10 9
31 29 29 27 25 25 27 29 28 19 22 23 22 17 16 15 12 9 7 3 2 3 3 4 14 12 8 6 4 8 10 10 11 10 13 11 10 10 9 8 8 10 9 10 9 9 8 9 8
24 28 29 29 26 22 27 28 25 25 20 23 23 20 8 7 12 9 6 5 5 4 2 3 2 11 12 9 7 4 5 7 9 10 11 16 11 10 10 10 9 7 10 10 10 8 9 9 10
22 27 25 28 26 28 23 26 32 24 21 22 23 23 20 16 25 21 8 9 5 4 4 5 4 10 10 11 9 7 5 7 5 9 12 17 15 12 13 9 10 10 9 9 11 10 6 8 7
23 20 22 27 27 29 21 30 28 26 22 23 24 22 22 20 20 14 13 12 9 8 9 9 7 8 12 10 7 7 8 6 8 9 7 13 17 15 10 10 9 8 8 9 5 9 6 6 5
18 21 24 25 25 26 27 32 27 25 23 20 21 21 22 21 19 18 17 14 12 12 11 8 6 4 8 6 7 8 8 7 7 6 8 9 15 17 13 10 8 10 7 6 8 5 4 4 5
17 22 23 27 26 26 27 30 27 25 23 25 22 22 22 22 25 17 13 15 11 8 8 7 5 4 3 5 7 6 6 7 8 8 6 8 11 16 13 9 9 6 9 7 5 7 5 5 5
19 22 27 28 27 25 24 26 28 25 25 24 20 19 24 24 22 19 14 17 8 9 9 9 7 7 4 4 4 5 7 7 7 7 8 6 9 11 13 10 6 10 7 9 7 5 7 5 3
20 21 24 25 25 23 27 28 28 22 23 22 22 23 21 22 22 19 21 15 7 8 9 9 9 10 8 7 6 5 6 8 8 7 7 7 8 11 10 10 10 9 7 8 6 8 5 4 4
18 21 21 24 22 24 25 26 28 26 20 17 20 19 23 22 21 16 12 9 8 9 9 10 10 10 10 12 7 6 6 4 5 5 6 6 7 9 9 10 8 7 9 7 7 6 7 5 4
21 21 21 21 20 17 21 18 22 21 24 21 22 20 14 13 15 17 16 14 8 6 5 7 10 13 13 12 9 9 9 7 6 4 6 6 7 7 9 9 10 6 9 6 8 6 5 4 5
23 21 20 22 21 22 22 17 18 23 23 22 21 21 17 16 17 18 16 14 12 12 12 12 13 13 14 13 13 10 8 6 4 4 9 8 6 7 6 8 10 5 7 7 9 9 9 7 4
28 20 22 18 17 18 23 20 21 19 23 24 18 21 23 25 25 22 19 17 17 15 14 12 13 13 12 11 12 9 8 8 5 7 7 6 6 5 7 7 6 6 6 7 8 8 9 5 4
28 17 13 16 14 17 22 22 18 21 24 24 22 18 20 16 15 18 21 19 18 15 13 8 8 9 10 12 10 12 11 9 7 9 8 9 6 5 7 6 6 5 7 7 6 6 5 5 5
26 10 10 19 17 17 21 15 17 19 22 25 23 24 16 14 15 9 6 6 9 11 10 8 7 8 8 9 12 9 12 6 5 9 8 7 6 7 8 8 8 9 7 5 6 5 5 6 4
20 11 20 12 19 15 20 27 21 22 23 26 24 23 12 13 10 8 12 10 12 11 10 9 9 11 10 10 8 9 9 7 10 10 10 8 9 8 9 11 10 8 8 8 7 4 5 6 5
15 9 13 5 12 17 17 22 12 20 19 24 24 19 18 6 9 13 12 12 9 5 8 6 6 8 7 8 9 9 9 9 11 11 12 12 9 11 11 9 8 7 7 8 6 5 4 6 4
11 3 3 12 7 5 9 13 12 17 22 22 22 15 7 11 10 14 16 12 11 8 10 9 9 11 11 9 8 10 9 12 12 10 8 10 10 10 10 8 8 7 7 6 5 2 7 6 6
17 14 12 7 10 9 13 22 15 24 29 30 25 7 6 8 4 7 8 9 11 13 13 12 12 12 11 11 11 10 11 11 12 10 8 9 10 10 10 8 6 6 6 5 5 5 5 6 6
Wind_Direction
250 248 258 262 244 230 245 236 256 264 256 181 25 41 262 327 48 93 132 113 115 129 143 152 151 154 152 156 152 150 148 147 145 143 141 140 143 144 137 138 143 145 144 141 144 137 129 119 106
230 245 250 283 237 245 240 233 239 245 253 107 105 274 284 85 114 131 109 116 117 135 143 150 155 157 156 158 155 154 151 152 152 150 149 150 154 152 150 152 157 156 158 161 158 147 135 120 102
259 258 242 230 232 251 262 225 225 234 64 116 169 223 217 102 126 118 108 114 122 138 146 150 159 159 160 159 157 157 153 155 159 159 162 163 166 163 161 162 168 169 168 168 167 161 155 142 135
243 208 248 255 258 252 253 283 290 167 141 169 227 191 262 41 119 131 128 124 126 142 148 145 154 157 163 166 164 159 162 165 167 170 170 171 172 170 164 168 170 182 173 178 177 175 168 170 161
242 260 244 246 245 254 274 271 275 292 140 197 211 191 212 98 111 134 139 138 144 145 151 150 156 163 166 168 168 168 170 171 176 174 176 176 175 175 172 174 174 188 181 186 187 182 185 194 194
235 231 247 245 256 266 262 266 280 265 267 238 213 223 187 147 129 146 152 150 148 144 143 152 158 165 168 168 172 175 174 180 182 182 183 182 180 182 181 180 181 191 193 197 194 192 196 202 211
244 252 247 253 255 250 258 285 287 248 253 265 213 212 227 155 149 156 157 156 153 144 132 150 166 168 171 177 176 175 181 182 184 188 187 190 186 189 187 186 187 194 200 203 202 200 210 213 211
240 249 263 264 264 266 273 250 251 247 263 275 271 322 328 149 176 164 170 169 158 150 147 150 164 175 182 185 184 183 187 186 187 189 192 193 195 195 196 187 193 200 204 203 201 207 216 219 225
244 241 246 248 254 263 275 281 286 279 278 243 262 95 163 172 165 180 181 172 164 157 160 153 161 171 183 189 187 189 194 196 193 197 196 192 198 196 206 201 199 202 205 204 207 213 217 225 230
238 244 239 244 250 273 280 271 277 256 255 258 227 93 68 106 103 259 185 186 172 162 160 154 154 165 177 197 181 186 196 202 203 205 197 201 205 202 203 200 211 199 200 205 214 217 209 224 232
228 247 248 251 250 248 266 284 288 278 270 254 238 176 198 180 202 204 226 190 198 187 170 150 155 161 171 199 169 179 191 196 204 207 199 196 205 214 202 202 195 194 200 202 213 210 218 222 226
240 242 246 256 266 282 285 279 262 244 257 267 264 242 184 208 226 215 225 208 324 79 126 163 159 158 178 179 167 177 186 191 200 203 197 196 198 206 214 205 188 192 192 205 211 207 213 231 221
251 247 246 247 252 267 276 272 273 242 256 274 277 267 225 192 214 232 239 283 10 162 269 89 155 160 169 184 196 181 191 192 196 197 198 196 200 206 203 211 209 188 195 192 211 201 207 217 236
259 261 260 257 253 240 251 264 263 261 249 264 275 266 221 245 277 249 261 255 230 227 233 342 49 165 163 178 204 208 211 189 191 197 196 200 203 196 208 210 201 197 191 192 201 206 213 198 212
276 274 271 264 260 253 253 247 251 256 253 253 261 270 272 216 203 215 239 271 256 276 276 199 198 148 170 182 187 212 223 215 222 198 195 189 199 207 201 203 218 207 187 202 186 218 209 201 197
278 281 258 246 253 255 262 252 244 253 240 248 259 264 266 260 249 226 213 214 191 205 216 212 198 176 180 185 192 199 218 230 214 221 209 187 193 196 201 207 201 217 215 192 194 193 213 206 223
247 257 258 265 246 246 241 259 247 243 246 230 245 257 264 262 251 235 224 222 209 204 203 165 167 193 159 178 196 206 216 221 233 228 212 198 184 194 198 206 204 191 207 211 198 187 182 216 213
264 245 246 251 258 265 236 240 251 250 244 239 236 248 261 256 252 252 231 236 233 154 140 158 163 179 208 191 206 213 213 226 229 230 235 194 188 184 195 202 199 189 203 205 194 183 202 213 195
269 265 272 279 289 291 255 254 244 238 248 234 237 232 244 253 260 266 242 248 194 157 158 173 177 200 202 232 218 228 225 228 233 213 213 216 176 181 182 200 210 201 208 203 189 176 200 206 193
275 286 282 287 289 285 280 281 282 245 240 241 231 229 238 249 244 240 244 248 180 175 180 177 181 183 203 215 229 240 222 225 218 197 189 189 164 175 179 185 203 199 212 193 200 186 180 194 166
264 261 278 285 291 287 285 274 268 273 272 254 267 243 224 235 253 258 257 247 210 202 195 190 190 197 209 219 230 219 231 251 265 185 167 168 164 167 181 181 200 203 204 199 197 184 175 185 215
279 281 274 282 287 274 268 273 261 263 257 260 267 255 258 251 247 255 255 251 239 233 234 205 191 203 212 208 223 228 218 218 220 208 158 154 160 173 171 174 200 229 191 210 184 167 180 196 191
280 285 279 281 281 275 263 258 265 266 256 244 239 249 248 261 260 244 249 248 249 250 241 230 223 211 206 195 208 217 220 209 219 208 138 140 148 151 174 184 200 207 185 203 171 164 191 206 162
291 278 275 271 275 260 262 255 258 256 258 267 258 234 227 227 234 238 240 244 245 242 223 220 213 208 192 191 196 212 218 215 210 135 136 149 155 159 170 178 180 163 192 161 171 185 197 166 198
304 260 262 257 248 253 255 256 259 256 268 267 265 273 277 262 233 217 221 228 227 227 223 208 179 181 181 188 195 199 219 215 228 153 147 143 147 158 161 176 171 180 204 193 174 148 161 180 212
282 282 295 276 273 287 296 286 283 282 271 269 273 254 283 288 226 240 232 244 236 211 195 183 185 178 178 191 203 195 202 191 158 127 130 140 151 167 176 190 180 187 181 165 146 156 178 189 187
271 265 231 314 282 272 280 277 258 275 264 269 258 256 263 264 268 248 237 235 214 232 164 176 196 179 192 180 168 183 190 182 138 126 142 158 171 174 175 187 181 166 169 173 144 186 185 145 160
262 306 310 259 265 266 254 271 271 266 241 256 250 238 234 236 263 249 241 230 215 184 125 138 181 139 150 160 163 171 165 135 140 148 166 170 168 167 171 163 156 172 163 136 157 147 186 158 150
255 220 307 314 201 258 289 273 217 354 340 303 251 239 165 239 258 305 216 214 127 133 126 117 134 146 151 156 145 142 130 124 132 137 138 134 153 141 149 150 155 159 134 132 150 276 177 166 146
255 233 191 222 249 247 278 275 307 9 345 337 286 237 279 199 146 281 119 148 164 146 144 150 153 119 108 110 109 112 115 107 114 123 129 128 140 153 155 150 142 145 150 152 170 197 190 165 179